This is the latest recevied weather packets stored in our database for station/object DW9280. If no packets are shown the sender has not sent any weather packets the latest 10 day(s).
| Time | Temp. | Humidity | Pressure | Rain* | Wind** | Luminosity | Snow |
|---|---|---|---|---|---|---|---|
| 1787915170 | 20.56° C | 84% | 1006.5 hPa | 0 mm | - | 141 W/m² | - |
| 1787914873 | 20.56° C | 84% | 1006.7 hPa | 0 mm | - | 142 W/m² | - |
| 1787914569 | 20.56° C | 85% | 1006.7 hPa | 0 mm | - | 148 W/m² | - |
| 1787914268 | 20.56° C | 84% | 1006.8 hPa | 0 mm | - | 156 W/m² | - |
| 1787913970 | 20.56° C | 85% | 1006.9 hPa | 0 mm | - | 167 W/m² | - |
| 1787913668 | 20.56° C | 86% | 1006.9 hPa | 0 mm | - | 185 W/m² | - |
| 1787913369 | 20.56° C | 86% | 1007 hPa | 0 mm | - | 199 W/m² | - |
| 1787913068 | 20.56° C | 87% | 1007 hPa | 0 mm | - | 204 W/m² | - |
| 1787912892 | 20.56° C | 87% | 1007 hPa | 0 mm | - | 200 W/m² | - |
| 1787912466 | 20.56° C | 87% | 1006.7 hPa | 0 mm | - | 199 W/m² | - |
| 1787912167 | 20.56° C | 87% | 1006.7 hPa | 0 mm | - | 204 W/m² | - |
| 1787911868 | 20.56° C | 88% | 1006.7 hPa | 0 mm | - | 214 W/m² | - |
| 1787911568 | 20.56° C | 88% | 1006.7 hPa | 0 mm | - | 220 W/m² | - |
| 1787911267 | 20.56° C | 88% | 1006.8 hPa | 0 mm | - | 218 W/m² | - |
| 1787910965 | 20.56° C | 88% | 1006.8 hPa | 0 mm | - | 218 W/m² | - |
| 1787910661 | 20.56° C | 89% | 1006.9 hPa | 0 mm | - | 216 W/m² | - |
| 1787910361 | 20.56° C | 89% | 1006.9 hPa | 0 mm | - | 225 W/m² | - |
| 1787910058 | 20° C | 89% | 1007 hPa | 0 mm | - | 204 W/m² | - |
| 1787909753 | 20° C | 89% | 1007 hPa | 0 mm | - | 200 W/m² | - |
| 1787909578 | 20.56° C | 89% | 1006.9 hPa | 0 mm | - | 188 W/m² | - |
| 1787909278 | 20.56° C | 89% | 1006.9 hPa | 0 mm | - | 169 W/m² | - |
| 1787908851 | 20.56° C | 90% | 1006.9 hPa | 0 mm | - | 155 W/m² | - |
| 1787908448 | 20.56° C | 90% | 1006.7 hPa | 0 mm | - | 181 W/m² | - |
| 1787908148 | 20.56° C | 91% | 1006.5 hPa | 0 mm | - | 204 W/m² | - |
| 1787907849 | 20.56° C | 91% | 1006.5 hPa | 0 mm | - | 199 W/m² | - |
* Rain latest hour (hover to see other rain measurements)
** Current wind speed in m/s (hover to see current wind gust speed)